QPF
0.14 0.20 0.25 0.28 0.35 0.27 0.21 0.27 0.25 0.21 0.10 0.08 0.08 0.08 0.05 0.03 0.02 0.02 0.01 0.01 0.00 0.00 0.00 0.00 0.00 0.00 0.00 0.00 0.00 0.00 0.00 0.00 0.00 0.00 0.00 0.00 0.00 0.00 0.01 0.00 0.00 0.01 0.01
0.14 0.16 0.24 0.27 0.27 0.20 0.15 0.18 0.18 0.12 0.07 0.04 0.05 0.06 0.04 0.02 0.02 0.01 0.00 0.00 0.00 0.00 0.00 0.00 0.00 0.00 0.00 0.00 0.00 0.00 0.00 0.00 0.00 0.00 0.00 0.00 0.00 0.00 0.00 0.00 0.00 0.00 0.01
0.06 0.10 0.18 0.26 0.21 0.19 0.15 0.13 0.15 0.12 0.07 0.05 0.05 0.06 0.04 0.02 0.01 0.02 0.01 0.00 0.00 0.00 0.00 0.00 0.00 0.00 0.00 0.00 0.00 0.00 0.00 0.00 0.00 0.00 0.00 0.00 0.00 0.00 0.00 0.00 0.00 0.00 0.00
0.03 0.05 0.10 0.14 0.16 0.18 0.17 0.14 0.16 0.13 0.08 0.06 0.05 0.04 0.04 0.02 0.01 0.01 0.01 0.00 0.00 0.00 0.00 0.00 0.00 0.00 0.00 0.00 0.00 0.00 0.00 0.00 0.00 0.00 0.00 0.00 0.00 0.00 0.00 0.00 0.00 0.00 0.00
0.01 0.02 0.04 0.08 0.10 0.11 0.14 0.14 0.15 0.13 0.07 0.06 0.08 0.05 0.04 0.03 0.01 0.01 0.01 0.00 0.00 0.00 0.00 0.00 0.00 0.00 0.00 0.00 0.00 0.00 0.00 0.00 0.00 0.00 0.00 0.00 0.00 0.00 0.00 0.00 0.00 0.00 0.00
0.01 0.01 0.03 0.06 0.09 0.11 0.11 0.10 0.12 0.12 0.08 0.06 0.08 0.08 0.05 0.03 0.01 0.01 0.01 0.00 0.00 0.00 0.00 0.00 0.00 0.00 0.00 0.00 0.00 0.00 0.00 0.00 0.00 0.00 0.00 0.00 0.00 0.00 0.00 0.00 0.00 0.00 0.00
0.03 0.01 0.01 0.03 0.06 0.10 0.11 0.09 0.09 0.10 0.10 0.07 0.06 0.08 0.07 0.03 0.01 0.01 0.01 0.00 0.00 0.00 0.00 0.00 0.00 0.00 0.00 0.00 0.00 0.00 0.00 0.00 0.00 0.00 0.00 0.00 0.00 0.00 0.00 0.00 0.00 0.00 0.00
0.04 0.02 0.01 0.01 0.02 0.03 0.06 0.08 0.07 0.07 0.11 0.09 0.06 0.05 0.04 0.03 0.01 0.00 0.00 0.00 0.00 0.00 0.00 0.00 0.00 0.00 0.00 0.00 0.00 0.00 0.00 0.00 0.00 0.00 0.00 0.00 0.00 0.00 0.00 0.00 0.00 0.00 0.00
0.01 0.01 0.01 0.01 0.01 0.02 0.03 0.04 0.06 0.07 0.09 0.09 0.06 0.04 0.03 0.02 0.01 0.00 0.00 0.00 0.00 0.00 0.00 0.00 0.00 0.00 0.00 0.00 0.00 0.00 0.00 0.00 0.00 0.00 0.00 0.00 0.00 0.00 0.00 0.00 0.00 0.00 0.00
0.00 0.01 0.01 0.01 0.01 0.02 0.03 0.04 0.07 0.08 0.07 0.06 0.04 0.03 0.02 0.01 0.01 0.00 0.00 0.00 0.00 0.00 0.00 0.00 0.00 0.00 0.00 0.00 0.00 0.00 0.00 0.00 0.00 0.00 0.00 0.00 0.00 0.00 0.00 0.00 0.00 0.00 0.00
0.00 0.01 0.01 0.01 0.01 0.01 0.02 0.03 0.04 0.05 0.05 0.03 0.02 0.02 0.02 0.01 0.00 0.00 0.00 0.00 0.00 0.00 0.00 0.00 0.00 0.00 0.00 0.00 0.00 0.00 0.00 0.00 0.00 0.00 0.00 0.00 0.00 0.00 0.00 0.00 0.00 0.00 0.00
0.01 0.01 0.01 0.01 0.02 0.02 0.02 0.03 0.04 0.03 0.02 0.01 0.01 0.01 0.01 0.01 0.01 0.00 0.00 0.00 0.00 0.01 0.01 0.01 0.00 0.00 0.00 0.00 0.00 0.00 0.00 0.00 0.00 0.00 0.00 0.00 0.00 0.00 0.00 0.00 0.00 0.00 0.00
0.01 0.01 0.02 0.02 0.04 0.04 0.03 0.04 0.07 0.06 0.03 0.02 0.02 0.02 0.02 0.02 0.02 0.02 0.02 0.02 0.01 0.02 0.02 0.02 0.02 0.02 0.02 0.02 0.02 0.01 0.00 0.00 0.00 0.00 0.00 0.00 0.00 0.00 0.00 0.00 0.00 0.00 0.00
0.02 0.01 0.02 0.04 0.04 0.03 0.03 0.04 0.05 0.07 0.08 0.09 0.08 0.07 0.06 0.05 0.04 0.03 0.03 0.03 0.03 0.03 0.05 0.06 0.06 0.05 0.04 0.06 0.04 0.02 0.01 0.01 0.00 0.00 0.00 0.00 0.00 0.00 0.00 0.00 0.00 0.00 0.00
0.03 0.02 0.03 0.05 0.07 0.06 0.06 0.07 0.08 0.10 0.11 0.12 0.15 0.15 0.15 0.12 0.08 0.06 0.07 0.08 0.09 0.10 0.13 0.12 0.11 0.09 0.08 0.06 0.04 0.02 0.02 0.01 0.01 0.01 0.01 0.01 0.01 0.01 0.01 0.01 0.01 0.01 0.01
0.02 0.03 0.03 0.05 0.05 0.07 0.08 0.10 0.13 0.14 0.12 0.12 0.13 0.14 0.16 0.14 0.11 0.11 0.15 0.18 0.19 0.20 0.19 0.16 0.15 0.16 0.13 0.10 0.09 0.07 0.05 0.03 0.03 0.03 0.02 0.02 0.02 0.02 0.02 0.02 0.01 0.01 0.01
0.03 0.04 0.04 0.05 0.06 0.07 0.07 0.08 0.10 0.12 0.15 0.19 0.23 0.25 0.24 0.20 0.20 0.22 0.24 0.23 0.22 0.22 0.20 0.18 0.16 0.14 0.12 0.10 0.08 0.07 0.05 0.04 0.04 0.04 0.03 0.03 0.02 0.02 0.01 0.01 0.01 0.01 0.01
0.05 0.05 0.05 0.06 0.07 0.08 0.09 0.10 0.12 0.13 0.14 0.16 0.20 0.22 0.25 0.27 0.29 0.33 0.36 0.34 0.32 0.29 0.24 0.21 0.19 0.16 0.14 0.13 0.11 0.09 0.06 0.05 0.04 0.03 0.02 0.02 0.01 0.01 0.01 0.01 0.01 0.01 0.01
0.04 0.04 0.05 0.05 0.07 0.08 0.09 0.11 0.14 0.18 0.19 0.20 0.22 0.25 0.26 0.28 0.32 0.36 0.37 0.33 0.31 0.26 0.21 0.21 0.21 0.19 0.17 0.16 0.13 0.11 0.08 0.06 0.05 0.04 0.03 0.02 0.02 0.02 0.02 0.01 0.01 0.01 0.01
0.02 0.02 0.02 0.03 0.05 0.06 0.09 0.11 0.13 0.17 0.21 0.21 0.20 0.22 0.26 0.26 0.26 0.27 0.26 0.21 0.18 0.16 0.16 0.17 0.17 0.15 0.12 0.12 0.11 0.10 0.07 0.05 0.04 0.03 0.02 0.02 0.01 0.01 0.01 0.01 0.00 0.01 0.01
0.01 0.01 0.01 0.01 0.03 0.04 0.05 0.07 0.10 0.13 0.13 0.12 0.13 0.15 0.19 0.22 0.21 0.19 0.16 0.12 0.10 0.09 0.10 0.08 0.08 0.07 0.06 0.05 0.05 0.05 0.04 0.04 0.03 0.03 0.02 0.02 0.02 0.01 0.01 0.01 0.00 0.00 0.00
0.01 0.02 0.02 0.02 0.02 0.03 0.04 0.05 0.05 0.06 0.06 0.06 0.04 0.04 0.04 0.05 0.05 0.04 0.04 0.04 0.04 0.04 0.04 0.04 0.04 0.03 0.02 0.02 0.02 0.02 0.03 0.03 0.02 0.02 0.02 0.02 0.02 0.01 0.01 0.01 0.01 0.01 0.01
0.02 0.02 0.02 0.02 0.03 0.03 0.02 0.02 0.02 0.02 0.02 0.01 0.01 0.01 0.01 0.01 0.01 0.01 0.01 0.02 0.03 0.03 0.03 0.03 0.02 0.01 0.01 0.01 0.01 0.01 0.01 0.01 0.01 0.00 0.00 0.00 0.00 0.00 0.00 0.00 0.00 0.00 0.00
0.01 0.01 0.01 0.01 0.01 0.01 0.01 0.00 0.00 0.00 0.00 0.00 0.00 0.00 0.00 0.00 0.01 0.01 0.01 0.01 0.01 0.01 0.01 0.00 0.00 0.00 0.00 0.00 0.00 0.00 0.00 0.00 0.00 0.00 0.00 0.00 0.00 0.00 0.00 0.00 0.00 0.00 0.00
0.00 0.00 0.00 0.00 0.00 0.00 0.00 0.00 0.00 0.00 0.00 0.00 0.00 0.00 0.00 0.00 0.00 0.00 0.00 0.00 0.00 0.00 0.00 0.00 0.00 0.00 0.00 0.00 0.00 0.00 0.00 0.00 0.00 0.00 0.00 0.00 0.00 0.00 0.00 0.00 0.00 0.00 0.00
0.00 0.00 0.00 0.00 0.00 0.00 0.00 0.00 0.00 0.00 0.00 0.00 0.00 0.00 0.00 0.00 0.00 0.00 0.00 0.00 0.00 0.00 0.00 0.00 0.00 0.00 0.00 0.00 0.00 0.00 0.00 0.00 0.00 0.00 0.00 0.00 0.00 0.00 0.00 0.00 0.00 0.00 0.00
MSLP
1008.38 1008.59 1008.94 1009.39 1009.92 1010.48 1011.07 1011.66 1012.27 1012.87 1013.46 1014.03 1014.54 1014.99 1015.37 1015.66 1015.87 1016.03 1016.15 1016.27 1016.41 1016.59 1016.82 1017.08 1017.36 1017.65 1017.93 1018.19 1018.42 1018.62 1018.82 1019.00 1019.17 1019.34 1019.49 1019.60 1019.66 1019.64 1019.55 1019.39 1019.18 1018.96 1018.75
1008.52 1008.75 1009.09 1009.51 1009.96 1010.45 1010.96 1011.50 1012.09 1012.71 1013.36 1014.01 1014.62 1015.15 1015.59 1015.90 1016.11 1016.23 1016.31 1016.39 1016.50 1016.67 1016.91 1017.20 1017.53 1017.86 1018.17 1018.44 1018.67 1018.87 1019.05 1019.24 1019.43 1019.63 1019.82 1019.99 1020.10 1020.13 1020.07 1019.90 1019.67 1019.38 1019.10
1008.67 1008.93 1009.28 1009.67 1010.08 1010.49 1010.92 1011.40 1011.95 1012.58 1013.26 1013.97 1014.65 1015.26 1015.74 1016.08 1016.29 1016.39 1016.43 1016.47 1016.55 1016.71 1016.95 1017.26 1017.61 1017.96 1018.28 1018.56 1018.79 1018.97 1019.15 1019.33 1019.54 1019.78 1020.03 1020.26 1020.44 1020.53 1020.51 1020.37 1020.13 1019.82 1019.47
1008.81 1009.13 1009.51 1009.89 1010.26 1010.60 1010.96 1011.37 1011.87 1012.47 1013.16 1013.90 1014.62 1015.27 1015.79 1016.16 1016.37 1016.45 1016.48 1016.49 1016.55 1016.69 1016.93 1017.24 1017.59 1017.95 1018.27 1018.54 1018.75 1018.92 1019.09 1019.27 1019.49 1019.76 1020.06 1020.36 1020.61 1020.78 1020.82 1020.72 1020.50 1020.19 1019.82
1008.97 1009.35 1009.77 1010.17 1010.50 1010.79 1011.08 1011.41 1011.84 1012.39 1013.05 1013.77 1014.51 1015.18 1015.72 1016.10 1016.32 1016.41 1016.42 1016.43 1016.47 1016.61 1016.84 1017.15 1017.50 1017.85 1018.16 1018.41 1018.60 1018.76 1018.90 1019.08 1019.31 1019.60 1019.94 1020.30 1020.62 1020.85 1020.96 1020.92 1020.75 1020.46 1020.10
1009.15 1009.60 1010.06 1010.48 1010.80 1011.04 1011.26 1011.50 1011.85 1012.32 1012.92 1013.60 1014.31 1014.97 1015.52 1015.92 1016.15 1016.25 1016.27 1016.28 1016.34 1016.47 1016.70 1017.01 1017.35 1017.69 1017.99 1018.23 1018.40 1018.53 1018.65 1018.82 1019.05 1019.35 1019.72 1020.11 1020.48 1020.77 1020.94 1020.97 1020.85 1020.61 1020.28
1009.34 1009.85 1010.36 1010.79 1011.10 1011.31 1011.46 1011.62 1011.88 1012.26 1012.78 1013.40 1014.06 1014.69 1015.23 1015.62 1015.87 1016.00 1016.05 1016.08 1016.16 1016.31 1016.55 1016.86 1017.20 1017.54 1017.82 1018.04 1018.19 1018.30 1018.41 1018.55 1018.77 1019.06 1019.43 1019.84 1020.24 1020.58 1020.80 1020.89 1020.84 1020.66 1020.39
1009.50 1010.06 1010.61 1011.06 1011.36 1011.53 1011.63 1011.72 1011.89 1012.19 1012.62 1013.16 1013.76 1014.35 1014.87 1015.27 1015.53 1015.69 1015.78 1015.85 1015.96 1016.15 1016.41 1016.73 1017.07 1017.40 1017.67 1017.88 1018.02 1018.11 1018.20 1018.32 1018.52 1018.80 1019.15 1019.55 1019.96 1020.32 1020.58 1020.73 1020.74 1020.62 1020.41
1009.59 1010.19 1010.76 1011.21 1011.51 1011.66 1011.71 1011.76 1011.86 1012.09 1012.44 1012.92 1013.46 1014.01 1014.50 1014.90 1015.18 1015.36 1015.49 1015.61 1015.76 1015.98 1016.26 1016.60 1016.95 1017.27 1017.55 1017.75 1017.88 1017.97 1018.04 1018.15 1018.32 1018.57 1018.89 1019.27 1019.66 1020.03 1020.31 1020.49 1020.56 1020.51 1020.36
1009.58 1010.18 1010.75 1011.20 1011.49 1011.62 1011.67 1011.69 1011.76 1011.94 1012.26 1012.68 1013.18 1013.69 1014.16 1014.55 1014.84 1015.05 1015.22 1015.37 1015.56 1015.80 1016.10 1016.45 1016.80 1017.13 1017.41 1017.61 1017.74 1017.83 1017.90 1017.99 1018.14 1018.36 1018.65 1019.00 1019.36 1019.70 1019.99 1020.20 1020.30 1020.31 1020.23
1009.45 1010.03 1010.58 1011.00 1011.28 1011.41 1011.46 1011.49 1011.57 1011.76 1012.06 1012.47 1012.94 1013.43 1013.88 1014.26 1014.56 1014.78 1014.96 1015.13 1015.33 1015.59 1015.89 1016.24 1016.59 1016.92 1017.20 1017.41 1017.55 1017.64 1017.71 1017.80 1017.93 1018.13 1018.38 1018.69 1019.01 1019.33 1019.61 1019.82 1019.95 1020.01 1019.99
1009.22 1009.76 1010.26 1010.65 1010.91 1011.05 1011.13 1011.20 1011.32 1011.54 1011.87 1012.29 1012.76 1013.24 1013.67 1014.04 1014.32 1014.53 1014.71 1014.88 1015.07 1015.31 1015.60 1015.93 1016.27 1016.59 1016.87 1017.08 1017.23 1017.34 1017.42 1017.51 1017.64 1017.82 1018.04 1018.31 1018.59 1018.88 1019.13 1019.34 1019.49 1019.57 1019.60
1008.96 1009.44 1009.87 1010.22 1010.46 1010.61 1010.73 1010.85 1011.05 1011.33 1011.71 1012.16 1012.65 1013.12 1013.54 1013.89 1014.14 1014.32 1014.47 1014.61 1014.77 1014.98 1015.23 1015.53 1015.84 1016.14 1016.40 1016.61 1016.77 1016.90 1017.00 1017.10 1017.23 1017.39 1017.59 1017.83 1018.08 1018.32 1018.55 1018.74 1018.89 1019.00 1019.07
1008.75 1009.15 1009.52 1009.80 1010.02 1010.18 1010.33 1010.53 1010.80 1011.16 1011.60 1012.10 1012.61 1013.08 1013.48 1013.79 1014.01 1014.14 1014.24 1014.33 1014.44 1014.59 1014.80 1015.05 1015.32 1015.58 1015.83 1016.03 1016.20 1016.34 1016.45 1016.57 1016.71 1016.87 1017.05 1017.26 1017.47 1017.68 1017.88 1018.05 1018.19 1018.31 1018.40
1008.67 1009.01 1009.29 1009.51 1009.69 1009.85 1010.04 1010.30 1010.64 1011.08 1011.58 1012.12 1012.64 1013.11 1013.49 1013.76 1013.92 1014.01 1014.04 1014.07 1014.12 1014.22 1014.37 1014.56 1014.78 1015.01 1015.23 1015.42 1015.59 1015.73 1015.86 1016.00 1016.14 1016.30 1016.47 1016.65 1016.84 1017.01 1017.17 1017.31 1017.44 1017.55 1017.65
1008.80 1009.06 1009.27 1009.42 1009.56 1009.72 1009.93 1010.22 1010.62 1011.11 1011.66 1012.22 1012.75 1013.20 1013.55 1013.78 1013.89 1013.93 1013.91 1013.88 1013.88 1013.92 1014.02 1014.16 1014.34 1014.53 1014.72 1014.90 1015.05 1015.20 1015.34 1015.48 1015.62 1015.78 1015.94 1016.10 1016.26 1016.40 1016.52 1016.62 1016.72 1016.81 1016.90
1009.16 1009.36 1009.49 1009.58 1009.68 1009.81 1010.02 1010.34 1010.77 1011.28 1011.84 1012.41 1012.93 1013.36 1013.68 1013.87 1013.95 1013.94 1013.88 1013.82 1013.78 1013.78 1013.84 1013.94 1014.08 1014.25 1014.41 1014.57 1014.72 1014.85 1014.99 1015.13 1015.27 1015.41 1015.56 1015.70 1015.82 1015.92 1016.00 1016.07 1016.12 1016.17 1016.23
1009.71 1009.86 1009.95 1009.99 1010.04 1010.15 1010.35 1010.66 1011.08 1011.60 1012.15 1012.71 1013.20 1013.60 1013.89 1014.05 1014.09 1014.07 1013.99 1013.92 1013.87 1013.86 1013.90 1013.99 1014.11 1014.25 1014.39 1014.53 1014.66 1014.79 1014.91 1015.03 1015.16 1015.28 1015.41 1015.52 1015.60 1015.66 1015.69 1015.70 1015.70 1015.70 1015.71
1010.39 1010.53 1010.57 1010.58 1010.60 1010.68 1010.86 1011.15 1011.56 1012.05 1012.57 1013.09 1013.55 1013.92 1014.18 1014.31 1014.35 1014.32 1014.26 1014.20 1014.16 1014.16 1014.21 1014.31 1014.42 1014.55 1014.69 1014.81 1014.92 1015.02 1015.12 1015.21 1015.31 1015.41 1015.49 1015.56 1015.61 1015.62 1015.60 1015.55 1015.48 1015.42 1015.36
1011.12 1011.25 1011.29 1011.29 1011.29 1011.35 1011.51 1011.78 1012.15 1012.60 1013.09 1013.56 1013.98 1014.31 1014.54 1014.67 1014.71 1014.70 1014.66 1014.63 1014.62 1014.66 1014.74 1014.85 1014.97 1015.11 1015.23 1015.34 1015.43 1015.50 1015.57 1015.62 1015.68 1015.73 1015.77 1015.79 1015.78 1015.73 1015.66 1015.55 1015.41 1015.27 1015.14
1011.82 1011.97 1012.02 1012.03 1012.03 1012.09 1012.24 1012.48 1012.82 1013.23 1013.66 1014.09 1014.46 1014.76 1014.97 1015.09 1015.14 1015.16 1015.15 1015.16 1015.20 1015.27 1015.38 1015.52 1015.66 1015.80 1015.92 1016.01 1016.08 1016.12 1016.14 1016.15 1016.16 1016.15 1016.13 1016.09 1016.02 1015.91 1015.77 1015.60 1015.41 1015.19 1014.98
1012.42 1012.61 1012.69 1012.73 1012.76 1012.83 1012.97 1013.20 1013.51 1013.87 1014.26 1014.64 1014.97 1015.23 1015.42 1015.54 1015.60 1015.64 1015.66 1015.71 1015.78 1015.89 1016.03 1016.19 1016.35 1016.49 1016.61 1016.69 1016.73 1016.73 1016.71 1016.67 1016.61 1016.54 1016.45 1016.34 1016.21 1016.04 1015.84 1015.61 1015.35 1015.08 1014.80
1012.91 1013.14 1013.27 1013.35 1013.41 1013.51 1013.66 1013.88 1014.17 1014.49 1014.84 1015.17 1015.46 1015.69 1015.86 1015.97 1016.04 1016.08 1016.13 1016.20 1016.30 1016.43 1016.59 1016.76 1016.92 1017.07 1017.17 1017.24 1017.25 1017.22 1017.16 1017.05 1016.93 1016.79 1016.63 1016.45 1016.24 1016.02 1015.76 1015.48 1015.18 1014.86 1014.53
1013.30 1013.56 1013.74 1013.86 1013.97 1014.09 1014.26 1014.47 1014.74 1015.03 1015.34 1015.63 1015.88 1016.08 1016.23 1016.33 1016.39 1016.44 1016.49 1016.57 1016.68 1016.81 1016.98 1017.15 1017.31 1017.44 1017.54 1017.58 1017.57 1017.51 1017.39 1017.24 1017.05 1016.84 1016.60 1016.35 1016.08 1015.80 1015.50 1015.18 1014.85 1014.50 1014.15
1013.60 1013.89 1014.10 1014.27 1014.41 1014.56 1014.73 1014.94 1015.19 1015.46 1015.72 1015.98 1016.20 1016.37 1016.50 1016.58 1016.64 1016.68 1016.73 1016.80 1016.90 1017.03 1017.18 1017.34 1017.49 1017.61 1017.69 1017.71 1017.67 1017.58 1017.42 1017.21 1016.96 1016.69 1016.39 1016.07 1015.75 1015.41 1015.08 1014.73 1014.39 1014.04 1013.68
1013.85 1014.15 1014.38 1014.57 1014.73 1014.89 1015.06 1015.26 1015.48 1015.72 1015.96 1016.18 1016.38 1016.53 1016.64 1016.72 1016.77 1016.80 1016.85 1016.91 1016.99 1017.10 1017.24 1017.37 1017.50 1017.61 1017.66 1017.67 1017.61 1017.48 1017.29 1017.03 1016.74 1016.40 1016.05 1015.68 1015.31 1014.94 1014.58 1014.22 1013.88 1013.54 1013.20
Thickness
5742 5741 5737 5733 5731 5730 5731 5731 5729 5732 5734 5734 5732 5730 5729 5731 5731 5733 5734 5734 5734 5734 5733 5733 5732 5731 5730 5728 5727 5725 5723 5721 5721 5717 5714 5716 5718 5719 5719 5720 5719 5719 5718
5737 5736 5734 5731 5731 5728 5730 5731 5731 5732 5734 5735 5733 5732 5731 5730 5730 5731 5732 5732 5732 5732 5732 5731 5730 5729 5728 5726 5726 5724 5721 5719 5719 5714 5708 5705 5708 5713 5718 5718 5718 5718 5718
5738 5734 5732 5730 5729 5728 5729 5732 5732 5732 5733 5733 5731 5730 5727 5726 5725 5726 5728 5730 5731 5731 5730 5729 5728 5728 5727 5725 5724 5723 5720 5716 5716 5716 5710 5703 5700 5704 5711 5714 5716 5716 5716
5741 5736 5733 5731 5730 5731 5732 5732 5730 5730 5731 5731 5729 5727 5724 5721 5724 5726 5727 5729 5729 5729 5729 5728 5727 5726 5725 5724 5723 5721 5720 5717 5713 5714 5713 5711 5709 5703 5702 5707 5711 5713 5713
5743 5738 5736 5735 5734 5733 5732 5731 5729 5729 5729 5729 5728 5727 5724 5724 5725 5725 5726 5726 5727 5728 5727 5727 5726 5724 5723 5722 5721 5719 5718 5716 5713 5712 5711 5709 5707 5706 5701 5699 5703 5706 5710
5745 5740 5738 5736 5734 5734 5732 5731 5728 5727 5728 5728 5728 5727 5725 5724 5723 5723 5723 5723 5724 5725 5726 5725 5724 5723 5722 5720 5719 5718 5716 5714 5712 5711 5709 5707 5705 5702 5700 5697 5697 5698 5704
5747 5742 5738 5735 5734 5733 5733 5731 5728 5727 5728 5728 5728 5728 5727 5725 5724 5724 5723 5722 5722 5722 5723 5724 5722 5721 5720 5719 5717 5716 5714 5713 5711 5709 5707 5706 5705 5704 5701 5697 5694 5694 5698
5748 5745 5742 5740 5738 5736 5734 5732 5730 5729 5729 5728 5727 5727 5727 5726 5725 5725 5725 5724 5723 5724 5724 5723 5721 5720 5719 5717 5715 5713 5712 5711 5709 5708 5706 5704 5703 5703 5701 5698 5693 5689 5689
5751 5748 5746 5744 5741 5739 5737 5735 5732 5730 5729 5728 5727 5726 5726 5726 5725 5725 5726 5725 5725 5724 5724 5722 5720 5718 5717 5715 5713 5711 5709 5708 5707 5705 5703 5701 5701 5700 5699 5697 5694 5688 5682
5754 5751 5750 5747 5745 5743 5740 5738 5735 5733 5731 5729 5728 5728 5727 5726 5726 5725 5724 5724 5724 5724 5723 5721 5719 5716 5715 5713 5710 5708 5707 5705 5703 5702 5700 5698 5697 5696 5695 5694 5691 5689 5684
5757 5754 5753 5751 5749 5746 5743 5739 5737 5734 5732 5731 5729 5729 5727 5726 5725 5725 5724 5724 5723 5722 5721 5719 5717 5715 5713 5711 5708 5706 5704 5702 5700 5698 5696 5694 5694 5692 5690 5689 5687 5685 5682
5759 5757 5754 5752 5749 5746 5744 5741 5739 5736 5734 5732 5730 5728 5726 5725 5723 5723 5723 5722 5721 5720 5719 5717 5714 5712 5711 5708 5706 5703 5702 5699 5696 5695 5693 5691 5690 5687 5686 5684 5682 5680 5678
5757 5755 5753 5751 5749 5748 5746 5743 5741 5738 5736 5732 5729 5725 5723 5722 5721 5721 5721 5720 5719 5718 5717 5715 5712 5710 5708 5706 5703 5701 5699 5697 5694 5692 5689 5687 5685 5682 5681 5679 5677 5676 5675
5755 5752 5750 5749 5749 5748 5746 5743 5741 5739 5736 5732 5728 5724 5722 5721 5720 5720 5718 5718 5717 5716 5714 5713 5710 5708 5706 5703 5701 5698 5695 5693 5691 5689 5687 5685 5682 5680 5677 5675 5673 5671 5669
5750 5749 5747 5746 5745 5744 5743 5740 5738 5736 5733 5729 5724 5722 5721 5719 5717 5716 5715 5714 5713 5713 5711 5708 5706 5704 5702 5700 5697 5694 5692 5689 5687 5685 5683 5682 5680 5678 5675 5673 5670 5667 5664
5745 5745 5744 5743 5742 5741 5739 5737 5734 5732 5730 5725 5721 5719 5716 5715 5712 5710 5709 5708 5707 5705 5704 5702 5700 5697 5696 5695 5692 5689 5686 5684 5681 5679 5677 5676 5675 5674 5671 5669 5668 5665 5661
5739 5738 5738 5738 5737 5736 5735 5732 5730 5727 5723 5718 5715 5712 5711 5708 5705 5703 5701 5699 5697 5696 5694 5693 5691 5689 5687 5686 5684 5682 5679 5677 5674 5672 5669 5669 5669 5666 5664 5663 5661 5659 5657
5731 5730 5730 5731 5730 5728 5726 5724 5721 5717 5713 5709 5706 5704 5702 5699 5696 5694 5690 5688 5688 5686 5684 5682 5680 5678 5677 5675 5673 5672 5669 5666 5664 5661 5659 5658 5656 5655 5653 5652 5651 5650 5649
5722 5721 5721 5721 5720 5717 5715 5712 5708 5704 5701 5697 5694 5692 5691 5688 5685 5682 5680 5677 5676 5674 5673 5671 5668 5666 5664 5663 5662 5660 5656 5653 5651 5649 5647 5645 5643 5641 5639 5638 5637 5637 5638
5713 5711 5710 5709 5706 5703 5703 5700 5694 5690 5686 5683 5681 5680 5679 5676 5674 5671 5669 5667 5665 5663 5661 5657 5655 5653 5650 5649 5648 5646 5643 5639 5637 5635 5633 5631 5629 5627 5625 5623 5622 5622 5624
5702 5701 5699 5695 5692 5691 5690 5686 5682 5677 5674 5672 5671 5669 5666 5664 5662 5660 5658 5655 5654 5651 5647 5644 5641 5639 5637 5635 5633 5631 5628 5625 5622 5620 5618 5617 5615 5613 5612 5610 5609 5609 5610
5691 5689 5687 5683 5680 5679 5678 5673 5668 5666 5665 5662 5660 5657 5655 5654 5651 5648 5645 5642 5639 5635 5632 5629 5625 5623 5621 5620 5618 5617 5614 5611 5608 5606 5604 5603 5601 5600 5598 5597 5597 5596 5595
5681 5678 5676 5672 5668 5667 5665 5661 5656 5655 5653 5650 5647 5644 5643 5640 5638 5635 5632 5628 5625 5621 5618 5615 5611 5608 5606 5604 5603 5602 5600 5597 5594 5591 5590 5589 5587 5585 5584 5584 5582 5581 5579
5670 5667 5664 5661 5656 5654 5652 5649 5646 5644 5641 5636 5633 5631 5628 5626 5624 5621 5619 5615 5611 5608 5605 5601 5597 5593 5590 5588 5587 5585 5583 5581 5578 5575 5574 5573 5572 5570 5568 5566 5565 5563 5560
5659 5656 5653 5649 5644 5642 5639 5638 5635 5632 5628 5624 5621 5618 5615 5613 5610 5608 5605 5602 5599 5596 5592 5587 5583 5579 5575 5574 5572 5568 5566 5563 5561 5558 5555 5553 5552 5550 5548 5547 5545 5543 5542
5649 5645 5641 5637 5634 5631 5628 5625 5623 5621 5617 5612 5609 5605 5603 5600 5597 5593 5590 5588 5585 5583 5579 5575 5570 5566 5562 5560 5557 5554 5551 5548 5544 5540 5536 5534 5532 5530 5529 5528 5526 5525 5523